TimeEDT,TemperatureF,Dew PointF,Humidity,Sea Level PressureIn,VisibilityMPH,Wind Direction,Wind SpeedMPH,Gust SpeedMPH,PrecipitationIn,Events,Conditions,WindDirDegrees,DateUTC
12:54 AM,55.9,37.0,49,29.69,10.0,WSW,10.4,-,N/A,,Overcast,250,2011-10-18 04:54:00
1:54 AM,53.1,39.9,61,29.72,10.0,NNW,17.3,-,N/A,,Overcast,340,2011-10-18 05:54:00
2:54 AM,51.1,43.0,74,29.74,10.0,WNW,5.8,-,N/A,,Overcast,290,2011-10-18 06:54:00
3:54 AM,50.0,43.0,77,29.75,10.0,WSW,5.8,-,N/A,,Overcast,250,2011-10-18 07:54:00
4:54 AM,50.0,43.0,77,29.76,10.0,SW,5.8,-,N/A,,Overcast,220,2011-10-18 08:54:00
5:54 AM,50.0,43.0,77,29.76,10.0,SW,4.6,-,N/A,,Overcast,220,2011-10-18 09:54:00
6:54 AM,48.0,41.0,77,29.77,10.0,SW,8.1,-,N/A,,Scattered Clouds,220,2011-10-18 10:54:00
7:54 AM,46.9,39.9,77,29.78,10.0,SSW,6.9,-,N/A,,Mostly Cloudy,210,2011-10-18 11:54:00
8:54 AM,52.0,39.0,61,29.80,10.0,SW,5.8,-,N/A,,Mostly Cloudy,230,2011-10-18 12:54:00
9:54 AM,55.9,39.0,53,29.81,10.0,WSW,12.7,-,N/A,,Mostly Cloudy,250,2011-10-18 13:54:00
10:54 AM,59.0,41.0,51,29.81,10.0,West,13.8,-,N/A,,Overcast,280,2011-10-18 14:54:00
11:54 AM,61.0,41.0,48,29.81,10.0,WNW,13.8,-,N/A,,Mostly Cloudy,290,2011-10-18 15:54:00
12:54 PM,60.1,39.9,47,29.81,10.0,West,15.0,-,N/A,,Mostly Cloudy,280,2011-10-18 16:54:00
1:54 PM,61.0,41.0,48,29.81,10.0,West,6.9,-,N/A,,Mostly Cloudy,270,2011-10-18 17:54:00
2:54 PM,62.1,39.9,44,29.81,10.0,WNW,10.4,-,N/A,,Mostly Cloudy,290,2011-10-18 18:54:00
3:54 PM,62.1,39.9,44,29.81,10.0,NW,9.2,-,N/A,,Mostly Cloudy,320,2011-10-18 19:54:00
4:54 PM,60.1,39.9,47,29.83,10.0,WNW,4.6,-,N/A,,Overcast,300,2011-10-18 20:54:00
5:54 PM,57.9,42.1,56,29.84,10.0,ENE,3.5,-,N/A,,Overcast,60,2011-10-18 21:54:00
6:54 PM,55.9,43.0,62,29.85,10.0,NE,5.8,-,N/A,,Overcast,50,2011-10-18 22:54:00
7:54 PM,54.0,44.1,69,29.87,10.0,Calm,Calm,-,N/A,,Overcast,0,2011-10-18 23:54:00
8:54 PM,54.0,45.0,72,29.87,10.0,ENE,4.6,-,N/A,,Overcast,70,2011-10-19 00:54:00
9:54 PM,53.1,46.0,77,29.87,10.0,East,3.5,-,N/A,,Overcast,100,2011-10-19 01:54:00
10:54 PM,52.0,44.1,74,29.84,10.0,ESE,8.1,-,N/A,,Overcast,110,2011-10-19 02:54:00
11:54 PM,53.1,43.0,69,29.88,10.0,Calm,Calm,-,N/A,,Overcast,0,2011-10-19 03:54:00